DELTA 1 DEB, 10836

Orbit data source: Space-Track

DELTA 1 DEB, 10836 is space debris in SSO originally from a launch on Thu, 29 Jul 1976 UTC launched from the Air Force Western Test Range (AFWTR). Debris objects in space refer to the collection of defunct objects orbiting the Earth. Examples of debris include non-operational satellites, rocket bodies, and fragments generated from explosions, collisions, or faulty payload assembly.

Loading next visibility...
Identifier
10836, 1976-077CG
Orbit
SSO
Country
Flag of USUS
Related business
Manufacturer
Unknown
Mission
Spacecraft
Bus & Motor
Unknown
Mass
Unknown
Launch date (UTC)
1976-07-29 (49 years ago)
Launch vehicle
Unknown
Launch site
Air Force Western Test Range (AFWTR)
Object type
Payload
Rocket body
Debris
Shape & HBR
Unknown shape, 0.1 m
Radar Cross Section
Small (<0.1 m²)

Expand to show TLE details & history
Last TLE update: 23 hours ago

TLE from 23 hours ago
0 DELTA 1 DEB
1 10836U 76077CG  25341.26258169  .00000255  00000-0  31808-2 0  9993
2 10836 102.0843 102.8997 0179378  18.4936  11.6072 12.07679197530453
Epoch: 2025-12-07T06:18Z
TLE epoch observation values (Epoch: 2025-12-07T06:18:07.058Z)
Latitude
29.82678°
Longitude
-74.92407°
Altitude
1,509.13 km
Speed
7.175 km/s
True Right ascension
06h 23m 32s
True Declination
29° 41' 34"
Sunlit
Object was in full shadow at epoch
Visualization orbit readout
Latitude
Unknown
Longitude
Unknown
Altitude
Unknown
Speed
Unknown
Apparent Right ascension
Unknown
Apparent Declination
Unknown
Sunlit
N/A
Visualization observer readout
Local Sidereal Time
03:52:15
Azimuth
Unknown
Elevation
Unknown
Doppler factor
Unknown
Orbital elements
Apogee altitude
1,788.187 km
Perigee altitude
1,500.378 km
Semi-major axis
8,022.419 km
Eccentricity
0.01794
Inclination
102.0843°
RAAN
102.8997°
Arg. of periapsis
18.4936°
True anomaly
12.03005°
Mean anomaly
11.6072°
Eccentric anomaly
11.81768°
Mean motion
3.02054 °/min
Orbital period
119.18 mins
BSTAR
0.0031808
Loading maneuver chart data...
Computing Atmospheric mass density...
Loading historical data...
Loading historical data...
Loading historical data...
Loading historical data...
Loading historical data...
Loading historical data...
Loading historical data...

Documentation

Showing up to 5 results
|